Regional Weather Roundup
Issued by NWS

Home | Current Version | Previous Version | Graphics & Text | Print | Product List | Glossary On
Versions: 1 2 3 4 5 6 7 8 9 10 11 12 13 14 15 16 17 18 19 20 21 22 23 24 25 26 27 28 29 30 31 32 33 34 35 36 37 38 39 40 41 42 43 44 45 46 47 48 49 50
000
ASUS43 KOAX 240510
RWRNE

WEATHER ROUNDUP FOR NEBRASKA
NATIONAL WEATHER SERVICE OMAHA NE
1200 AM CDT TUE APR 24 2018

NOTES: SATELLITE DATA IS BEING USED TO AUGMENT CLOUD COVER ABOVE
       12000 FEET.
       "FAIR" INDICATES FEW OR NO CLOUDS BELOW 12,000 FEET WITH NO
       SIGNIFICANT WEATHER AND/OR OBSTRUCTIONS TO VISIBILITY.


NEZ001>004-019>022-054>056-240600-
NEBRASKA PANHANDLE

CITY           SKY/WX    TMP DP  RH WIND       PRES   REMARKS
SCOTTSBLUFF    CLOUDY    40  36  86 NW21G29   30.28R WCI  30
ALLIANCE       CLOUDY    39  37  92 NW14      30.22R WCI  31
CHADRON        MOCLDY    39  33  79 NW17G26   30.26R WCI  30
GORDON         CLOUDY    40  36  87 W17G24    30.19R WCI  31
KIMBALL        CLOUDY    37  34  89 N22G30    30.26R WCI  27
SIDNEY         CLOUDY    41  38  89 N25G32    30.23R
$$

NEZ057>060-069>072-079>082-240600-
SOUTHWEST NEBRASKA

CITY           SKY/WX    TMP DP  RH WIND       PRES   REMARKS
NORTH PLATTE   MOCLDY    47  40  76 SE5       30.12R
IMPERIAL       CLOUDY    54  43  66 S5        30.13R
LEXINGTON      CLEAR     47  39  72 E3        30.12R
MCCOOK         MOCLDY    54  39  57 SE13      30.09R
OGALLALA       RAIN      49  46  90 NW23      30.18R
$$

NEZ005>010-023>029-035>040-094-240600-
NORTH CENTRAL NEBRASKA

CITY           SKY/WX    TMP DP  RH WIND       PRES   REMARKS
VALENTINE      CLOUDY    57  48  72 NW10      30.11R
AINSWORTH      CLOUDY    55  42  62 S8        30.10S
BROKEN BOW     PTCLDY    44  38  79 CALM      30.12R
O`NEILL        CLOUDY    59  38  45 SE7       30.11F
ORD            CLOUDY    47  39  74 CALM      30.11R
THEDFORD       MOCLDY    55  41  60 S9        30.13R
$$

NEZ041-046>049-061>064-073>077-083>087-240600-
SOUTH CENTRAL NEBRASKA

CITY           SKY/WX    TMP DP  RH WIND       PRES   REMARKS
GRAND ISLAND   PTCLDY    56  37  49 S3        30.11R
AURORA         CLOUDY    51  33  50 CALM      30.10R
HASTINGS       CLEAR     51  40  65 CALM      30.11R
HEBRON         CLOUDY    49  38  65 CALM      30.09R
HOLDREGE       CLEAR     49  40  69 CALM      30.12R
KEARNEY        CLEAR     51  41  68 NW3       30.12R
YORK             N/A     54  28  37 CALM      30.10S
$$

NEZ011>018-030>034-042>045-240600-
NORTHEAST NEBRASKA

CITY           SKY/WX    TMP DP  RH WIND       PRES   REMARKS
NORFOLK        CLOUDY    54  39  57 E8        30.11R
ALBION         CLOUDY    56  41  57 CALM      30.11S
BLAIR          CLOUDY    57  32  38 NE9       30.10R
COLUMBUS       CLOUDY    47  34  60 CALM      30.11R
FREMONT        CLOUDY    50  33  52 CALM      30.11S
TEKAMAH        PTCLDY    45  36  70 N9        30.11R
WAYNE          PTCLDY    53  39  60 E7        30.12S
$$

NEZ050>053-065>068-078-088>093-240600-
SOUTHEAST NEBRASKA

CITY           SKY/WX    TMP DP  RH WIND       PRES   REMARKS
LINCOLN        CLOUDY    51  31  46 N5        30.11R
OMAHA EPPLEY   CLOUDY    54  31  41 CALM      30.10R
BEATRICE       CLOUDY    51  33  51 CALM      30.09R
FALLS CITY     CLEAR     57  29  34 NE5       30.06S
NEBRASKA CITY  CLEAR     58  31  36 CALM      30.08S
PLATTSMOUTH    CLEAR     59  29  32 E5        30.09R
$$

NEZ044-045-051>053-067-240600-
OMAHA AREA

CITY           SKY/WX    TMP DP  RH WIND       PRES   REMARKS
OMAHA EPPLEY   CLOUDY    54  31  41 CALM      30.10R
BLAIR          CLOUDY    57  32  38 NE9       30.10R
FREMONT        CLOUDY    50  33  52 CALM      30.11S
MILLARD        CLOUDY    54  35  48 CALM      30.10R
PLATTSMOUTH    CLEAR     59  29  32 E5        30.09R
WAHOO          FAIR      49  27  43 N7        30.10R
$$




USA.gov is the U.S. government's official web portal to all federal, state and local government web resources and services.